User: anonymous   Login
Location: ROBOsky.com Wild Flower Ridge Observatory
(43.9736°N, 79.9739°W)
Time: 06:13:54
(UTC-04:00)
Language:

Cosmos 1190 Rocket - Orbit

View from above orbital plane
View from above orbital plane
View from above satellite
View from above satellite

Ground track
Ground track

The orbit data is extracted from the following two-line orbital elements,

1 11870U 80056B   16238.73184318  .00000080  00000-0  35898-4 0  9996
2 11870  74.0528  30.2531 0015656  54.4861 305.7750 14.36811428892374
Epoch (UTC): 25 August 2016 17:33:51
Eccentricity: 0.0015656
inclination: 74.0528°
perigee height: 758 km
apogee height: 780 km
right ascension of ascending node: 30.2531°
argument of perigee: 54.4861°
revolutions per day: 14.36811428
mean anomaly at epoch: 305.7750°
orbit number at epoch: 89237

The dashed part of the orbit path shows where the satellite is in the earth's shadow,  

DLR